This is the latest recevied weather packets stored in our database for station/object KJ4UBX-11. If no packets are shown the sender has not sent any weather packets the latest 10 day(s).
| Time | Temp. | Humidity | Pressure | Rain* | Wind** | Luminosity | Snow |
|---|---|---|---|---|---|---|---|
| 1778232135 | 6.67° C | 62% | 1006 hPa | - | - | - | - |
| 1778231552 | 6.67° C | 61% | 1005.8 hPa | - | - | - | - |
| 1778230969 | 6.67° C | 59% | 1005.7 hPa | - | - | - | - |
| 1778230385 | 6.67° C | 60% | 1005.5 hPa | - | - | - | - |
| 1778229804 | 6.67° C | 58% | 1005.5 hPa | - | - | - | - |
| 1778229221 | 6.67° C | 59% | 1005.4 hPa | - | - | - | - |
| 1778228638 | 7.22° C | 58% | 1005.4 hPa | - | - | - | - |
| 1778228055 | 7.22° C | 57% | 1005.3 hPa | - | - | - | - |
| 1778227472 | 7.22° C | 57% | 1005.3 hPa | - | - | - | - |
| 1778226889 | 7.22° C | 57% | 1005.2 hPa | - | - | - | - |
| 1778226307 | 7.78° C | 55% | 1005.2 hPa | - | - | - | - |
| 1778225724 | 7.78° C | 55% | 1005.2 hPa | - | - | - | - |
| 1778225141 | 7.78° C | 52% | 1005.2 hPa | - | - | - | - |
| 1778224559 | 7.78° C | 51% | 1005.1 hPa | - | - | - | - |
| 1778223976 | 8.33° C | 52% | 1005 hPa | - | - | - | - |
| 1778223393 | 8.33° C | 51% | 1004.9 hPa | - | - | - | - |
| 1778222812 | 8.89° C | 50% | 1005.2 hPa | - | - | - | - |
| 1778222228 | 8.89° C | 51% | 1005.3 hPa | - | - | - | - |
| 1778221645 | 9.44° C | 48% | 1005.2 hPa | - | - | - | - |
| 1778221063 | 9.44° C | 48% | 1005.3 hPa | - | - | - | - |
| 1778220480 | 9.44° C | 47% | 1005.4 hPa | - | - | - | - |
| 1778219897 | 9.44° C | 48% | 1005.4 hPa | - | - | - | - |
| 1778219314 | 9.44° C | 46% | 1005.5 hPa | - | - | - | - |
| 1778218147 | 8.89° C | 49% | 1005.7 hPa | - | - | - | - |
| 1778217563 | 8.89° C | 50% | 1005.8 hPa | - | - | - | - |
* Rain since midnight (hover to see other rain measurements)
** Current wind speed in m/s (hover to see current wind gust speed)